Starlink 6052

operational
NORAD ID: 56793 Int'l Des: 2023-078 Owner: SPXS Country: US Constellation: starlink
LEOCIRCULAR

关于 Starlink 6052

正在加载描述...

实时位置

正在加载3D地球...

即将过境

高度历史

Altitude vs Time

uPlot chart will show altitude changes over time

两行轨道根数

1 56793U 23078AC 25277.69440103 .00001412 00000-0 12608-3 0 9998
2 56793 70.0013 17.7782 0003019 269.2313 90.8501 14.98332720129312
Epoch: Oct 4, 2025 • Age: 9 hours

当前状态

高度 578.3 km
速度 7.57 km/s
星下点 38.77°N, 146.61°E
发射日期 May 31, 2023
运行时间 2.3 years
类型 internet

技术详情

分类 Payload
质量 305.00 kg
干质量 290.00 kg
总质量 305.00 kg
长度 0.20 m
直径 2.80 m
跨度 9.00 m
形状 Box + pan
制造商 SPXS
平台类型 Starlink
阶段状态 In Orbit
所有者/国家 SPXS/US

大型星座

Loading constellations...